Weather History for Torrington, WY

Change the Weather History Date:

Monday, May 20, 2013

  Actual Average Record
Temperature  
Mean Temperature 50 °F 58 °F  
Max Temperature 53 °F 72 °F 95 °F (2005)
Min Temperature 47 °F 43 °F 25 °F (2003)
Degree Days  
Heating Degree Days 15 8  
Month to date heating degree days 201 210  
Since 1 July heating degree days 6418 6442  
Cooling Degree Days 0 0  
Month to date cooling degree days 23 0  
Year to date cooling degree days 23 1  
Moisture  
Dew Point 41 °F    
Average Humidity 73    
Maximum Humidity 83    
Minimum Humidity 63    
Precipitation  
Precipitation 0.12 in 0.07 in 1.96 in (2014)
Month to date precipitation 0.79 1.29  
Year to date precipitation 3.24 4.30  
Sea Level Pressure  
Sea Level Pressure 29.84 in    
Wind  
Wind Speed 24 mph (NW)    
Max Wind Speed 38 mph    
Max Gust Speed 55 mph    
Visibility 10 miles    
Events Rain    
T = Trace of Precipitation, MM = Missing Value Source: NWS Daily Summary

Daily Weather History Graph

Daily Weather History Graph

Search for Another Location

Airport:

Trip Planner

Search our weather history database for the weather conditions in past years. The results will help you decide how hot, cold, wet, or windy it might be!

Date:

Astronomy

May. 20, 2013 Rise Set
Actual Time 5:31 AM MDT 8:15 PM MDT
Civil Twilight 4:58 AM MDT 8:48 PM MDT
Nautical Twilight 4:17 AM MDT 9:29 PM MDT
Astronomical Twilight 3:30 AM MDT 10:16 PM MDT
Moon 3:21 PM MDT (5/20) 2:32 AM MDT (5/20)
Length of Visible Light 15h 49m
Length of Day
14h 44m
Waxing Gibbous, 75% of the Moon is Illuminated
May 20
Waxing Gibbous
May 24
Full
May 31
Last Quarter
Jun 8
New
Jun 16
First Quarter

Hourly Weather History & Observations

Time (MDT) Temp. Dew Point Humidity Pressure Visibility Wind Dir Wind Speed Gust Speed Precip Events Conditions
12:34 AM 51.8 °F 46.4 °F 82% 29.81 in 10.0 mi NW 10.4 mph - N/A   Overcast
12:53 AM 51.1 °F 46.0 °F 83% 29.76 in 10.0 mi NNW 15.0 mph - 0.00 in   Overcast
1:53 AM 50.0 °F 44.1 °F 80% 29.75 in 10.0 mi NW 16.1 mph 24.2 mph N/A   Overcast
2:53 AM 50.0 °F 44.1 °F 80% 29.74 in 10.0 mi WNW 15.0 mph - N/A   Overcast
3:53 AM 48.9 °F 42.1 °F 77% 29.73 in 10.0 mi WNW 19.6 mph 25.3 mph N/A   Overcast
4:53 AM 50.0 °F 42.1 °F 74% 29.73 in 10.0 mi NW 15.0 mph 33.4 mph N/A   Mostly Cloudy
5:04 AM 50.0 °F 42.8 °F 76% 29.80 in 10.0 mi WNW 15.0 mph 21.9 mph N/A   Overcast
5:28 AM 50.0 °F 41.0 °F 71% 29.80 in 10.0 mi NW 21.9 mph 39.1 mph N/A   Mostly Cloudy
5:53 AM 48.9 °F 41.0 °F 74% 29.76 in 10.0 mi NW 18.4 mph 27.6 mph N/A   Scattered Clouds
6:53 AM 50.0 °F 41.0 °F 71% 29.77 in 10.0 mi NW 21.9 mph 35.7 mph N/A   Overcast
8:53 AM 52.0 °F 41.0 °F 66% 29.77 in 10.0 mi NW 34.5 mph 42.6 mph N/A   Overcast
9:53 AM 52.0 °F 39.9 °F 63% 29.78 in 10.0 mi NW 34.5 mph 50.6 mph N/A   Overcast
10:53 AM 48.0 °F 41.0 °F 77% 29.81 in 10.0 mi NW 26.5 mph 43.7 mph 0.02 in Rain Light Rain
11:53 AM 48.0 °F 43.0 °F 83% 29.81 in 7.0 mi NW 28.8 mph 39.1 mph 0.04 in Rain Light Rain
12:53 PM 48.0 °F 42.1 °F 80% 29.82 in 10.0 mi NW 28.8 mph 42.6 mph 0.04 in Rain Light Rain
1:53 PM 48.0 °F 41.0 °F 77% 29.84 in 10.0 mi NW 28.8 mph 43.7 mph 0.02 in Rain Light Rain
2:53 PM 51.1 °F 42.1 °F 71% 29.83 in 10.0 mi NW 25.3 mph 49.5 mph 0.00 in   Overcast
3:53 PM 51.1 °F 41.0 °F 68% 29.85 in 10.0 mi NW 32.2 mph 46.0 mph 0.00 in   Overcast
4:53 PM 51.1 °F 41.0 °F 68% 29.86 in 10.0 mi NW 32.2 mph 42.6 mph N/A   Overcast
5:53 PM 52.0 °F 39.9 °F 63% 29.86 in 10.0 mi NW 31.1 mph 42.6 mph N/A   Overcast
6:53 PM 51.1 °F 41.0 °F 68% 29.88 in 10.0 mi NW 23.0 mph 42.6 mph N/A   Overcast
7:50 PM 50.0 °F 41.0 °F 71% 29.94 in 10.0 mi NW 24.2 mph 33.4 mph N/A   Overcast
8:00 PM 50.0 °F 39.2 °F 66% 29.93 in 10.0 mi NW 26.5 mph 36.8 mph N/A   Overcast
8:53 PM 48.9 °F 39.9 °F 71% 29.90 in 10.0 mi NW 23.0 mph 27.6 mph N/A   Overcast
9:18 PM 48.2 °F 39.2 °F 71% 29.95 in 10.0 mi NW 23.0 mph 34.5 mph N/A   Overcast
9:45 PM 48.2 °F 39.2 °F 71% 29.96 in 10.0 mi NW 21.9 mph 29.9 mph N/A   Overcast
9:53 PM 48.9 °F 39.9 °F 71% 29.92 in 10.0 mi NW 17.3 mph 27.6 mph N/A   Overcast
10:16 PM 48.2 °F 39.2 °F 71% 29.96 in 10.0 mi NW 19.6 mph 32.2 mph N/A   Overcast
10:49 PM 48.2 °F 39.2 °F 71% 29.96 in 10.0 mi NW 24.2 mph 34.5 mph N/A   Overcast
10:53 PM 48.0 °F 39.9 °F 74% 29.94 in 10.0 mi NW 24.2 mph 34.5 mph N/A   Overcast
11:53 PM 48.0 °F 39.9 °F 74% 29.93 in 10.0 mi NW 20.7 mph 26.5 mph N/A   Mostly Cloudy